| time (UTC) | temp F | wind direction | speed MPH | gust MPH | rain 1hr in | rain 24hr in | rain mn in | humidity % | barometer mb |
| 20260906133054 | 67 | 38 | 4.0 | 8.0 | 0.00 | 0.04 | 0.02 | 80 | 1016.6 |
| 20260906131558 | 66 | 65 | 3.0 | 6.0 | 0.00 | 0.04 | 0.02 | 82 | 1016.7 |
| 20260906130103 | 65 | 78 | 3.0 | 7.0 | 0.01 | 0.04 | 0.02 | 83 | 1016.8 |
| 20260906124608 | 64 | 71 | 3.0 | 6.0 | 0.01 | 0.04 | 0.02 | 86 | 1016.7 |
| 20260906123050 | 63 | 65 | 1.0 | 3.0 | 0.01 | 0.04 | 0.02 | 91 | 1016.4 |
| 20260906121602 | 62 | 0 | 1.0 | 2.0 | 0.01 | 0.04 | 0.02 | 94 | 1016.3 |
| 20260906120050 | 61 | 12 | 0.0 | 4.0 | 0.00 | 0.03 | 0.01 | 95 | 1016.0 |
| 20260906114603 | 60 | 146 | 0.0 | 3.0 | 0.00 | 0.03 | 0.01 | 95 | 1015.9 |
| 20260906113050 | 59 | 133 | 0.0 | 2.0 | 0.00 | 0.03 | 0.01 | 95 | 1015.8 |
| 20260906111621 | 58 | 0 | 0.0 | 3.0 | 0.00 | 0.03 | 0.01 | 94 | 1015.7 |
| 20260906110050 | 58 | 0 | 0.0 | 2.0 | 0.00 | 0.03 | 0.01 | 94 | 1015.6 |
| 20260906104548 | 59 | 0 | 0.0 | 2.0 | 0.00 | 0.04 | 0.01 | 94 | 1015.4 |
| 20260906103053 | 59 | 102 | 0.0 | 2.0 | 0.00 | 0.04 | 0.01 | 94 | 1015.5 |
| 20260906101550 | 59 | 0 | 1.0 | 3.0 | 0.00 | 0.04 | 0.01 | 94 | 1015.4 |
| 20260906100049 | 59 | 0 | 0.0 | 2.0 | 0.00 | 0.04 | 0.01 | 94 | 1015.2 |
| 20260906094558 | 60 | 109 | 0.0 | 2.0 | 0.00 | 0.04 | 0.01 | 94 | 1015.1 |
| 20260906093101 | 60 | 0 | 0.0 | 2.0 | 0.00 | 0.04 | 0.01 | 94 | 1014.9 |
| 20260906091550 | 60 | 0 | 0.0 | 3.0 | 0.00 | 0.04 | 0.01 | 94 | 1014.7 |
| 20260906090057 | 60 | 136 | 1.0 | 2.0 | 0.00 | 0.04 | 0.01 | 94 | 1014.6 |
| 20260906084554 | 60 | 0 | 0.0 | 1.0 | 0.00 | 0.04 | 0.01 | 94 | 1014.7 |
| 20260906083049 | 61 | 130 | 0.0 | 1.0 | 0.00 | 0.04 | 0.01 | 94 | 1014.6 |
| 20260906081554 | 61 | 0 | 0.0 | 1.0 | 0.00 | 0.04 | 0.01 | 94 | 1014.4 |
| 20260906080054 | 61 | 0 | 0.0 | 2.0 | 0.00 | 0.04 | 0.01 | 94 | 1014.4 |
| 20260906074547 | 62 | 0 | 0.0 | 0.0 | 0.00 | 0.04 | 0.01 | 93 | 1014.6 |
| 20260906073101 | 62 | 0 | 0.0 | 0.0 | 0.00 | 0.04 | 0.01 | 93 | 1014.4 |
| 20260906071552 | 63 | 0 | 0.0 | 0.0 | 0.00 | 0.04 | 0.01 | 93 | 1014.1 |
| 20260906070127 | 63 | 0 | 0.0 | 0.0 | 0.00 | 0.04 | 0.01 | 93 | 1014.1 |
| 20260906064552 | 63 | 0 | 0.0 | 4.0 | 0.00 | 0.04 | 0.01 | 93 | 1014.2 |
| 20260906063052 | 64 | 0 | 0.0 | 1.0 | 0.00 | 0.04 | 0.01 | 93 | 1014.3 |
| 20260906061602 | 64 | 0 | 0.0 | 0.0 | 0.00 | 0.04 | 0.01 | 93 | 1014.0 |
| 20260906060100 | 64 | 0 | 0.0 | 0.0 | 0.00 | 0.04 | 0.01 | 93 | 1014.0 |
| 20260906054553 | 64 | 0 | 0.0 | 0.0 | 0.00 | 0.04 | 0.01 | 92 | 1014.2 |
| 20260906053051 | 65 | 0 | 0.0 | 0.0 | 0.00 | 0.04 | 0.01 | 92 | 1014.2 |
| 20260906051553 | 65 | 0 | 0.0 | 0.0 | 0.00 | 0.04 | 0.01 | 92 | 1014.2 |
| 20260906050108 | 66 | 0 | 0.0 | 1.0 | 0.01 | 0.04 | 0.01 | 92 | 1014.0 |
| 20260906044549 | 66 | 0 | 0.0 | 1.0 | 0.01 | 0.05 | 0.01 | 92 | 1014.1 |
| 20260906043108 | 66 | 0 | 0.0 | 2.0 | 0.01 | 0.05 | 0.01 | 92 | 1014.1 |
| 20260906041550 | 67 | 0 | 0.0 | 2.0 | 0.01 | 0.05 | 0.01 | 92 | 1014.3 |
| 20260906040110 | 67 | 144 | 0.0 | 1.0 | 0.00 | 0.04 | 0.00 | 91 | 1014.3 |
| 20260906034548 | 67 | 146 | 0.0 | 2.0 | 0.00 | 0.04 | 0.04 | 91 | 1014.4 |
| 20260906033057 | 67 | 0 | 0.0 | 2.0 | 0.00 | 0.04 | 0.04 | 91 | 1014.4 |
| 20260906031550 | 67 | 0 | 0.0 | 2.0 | 0.00 | 0.04 | 0.04 | 91 | 1014.2 |
| 20260906030050 | 67 | 0 | 0.0 | 1.0 | 0.00 | 0.04 | 0.04 | 90 | 1014.3 |
| 20260906024557 | 68 | 0 | 0.0 | 1.0 | 0.00 | 0.04 | 0.04 | 89 | 1014.0 |
| 20260906023130 | 68 | 0 | 0.0 | 0.0 | 0.00 | 0.04 | 0.04 | 89 | 1014.0 |
| 20260906021547 | 68 | 0 | 0.0 | 1.0 | 0.00 | 0.04 | 0.04 | 88 | 1013.7 |
| 20260906020058 | 69 | 0 | 0.0 | 1.0 | 0.00 | 0.04 | 0.04 | 87 | 1013.5 |
| 20260906014602 | 69 | 32 | 0.0 | 2.0 | 0.00 | 0.04 | 0.04 | 86 | 1013.4 |
| 20260906013050 | 70 | 0 | 0.0 | 2.0 | 0.00 | 0.04 | 0.04 | 84 | 1013.2 |
| 20260906011555 | 71 | 32 | 0.0 | 2.0 | 0.00 | 0.04 | 0.04 | 83 | 1013.2 |
| 20260906010058 | 72 | 0 | 0.0 | 1.0 | 0.00 | 0.04 | 0.04 | 81 | 1013.0 |
| 20260906004607 | 72 | 0 | 0.0 | 2.0 | 0.00 | 0.04 | 0.04 | 80 | 1012.8 |
| 20260906003055 | 73 | 0 | 0.0 | 1.0 | 0.00 | 0.04 | 0.04 | 81 | 1012.8 |
| 20260906001550 | 74 | 0 | 0.0 | 2.0 | 0.00 | 0.04 | 0.04 | 80 | 1012.7 |
| 20260906000107 | 74 | 0 | 0.0 | 1.0 | 0.00 | 0.04 | 0.04 | 77 | 1012.5 |
| 20260905234557 | 75 | 0 | 0.0 | 1.0 | 0.00 | 0.05 | 0.04 | 75 | 1012.4 |
| 20260905233055 | 76 | 0 | 0.0 | 0.0 | 0.00 | 0.05 | 0.04 | 74 | 1012.3 |
| 20260905231602 | 76 | 0 | 0.0 | 2.0 | 0.00 | 0.05 | 0.04 | 73 | 1012.3 |
| 20260905230103 | 77 | 0 | 1.0 | 3.0 | 0.00 | 0.05 | 0.04 | 72 | 1012.2 |
| 20260905224604 | 78 | 0 | 0.0 | 3.0 | 0.00 | 0.05 | 0.04 | 71 | 1012.1 |
| 20260905223051 | 78 | 327 | 1.0 | 3.0 | 0.00 | 0.05 | 0.04 | 69 | 1011.8 |
| 20260905221551 | 78 | 327 | 2.0 | 6.0 | 0.00 | 0.05 | 0.04 | 68 | 1011.6 |
| 20260905214552 | 79 | 5 | 2.0 | 5.0 | 0.01 | 0.05 | 0.04 | 68 | 1011.5 |
| 20260905213107 | 79 | 319 | 2.0 | 7.0 | 0.01 | 0.05 | 0.04 | 69 | 1011.3 |
| 20260905211552 | 80 | 352 | 2.0 | 6.0 | 0.01 | 0.05 | 0.04 | 69 | 1011.2 |
| 20260905210049 | 81 | 355 | 4.0 | 8.0 | 0.01 | 0.05 | 0.04 | 66 | 1011.1 |
| 20260905204558 | 81 | 5 | 2.0 | 8.0 | 0.00 | 0.04 | 0.03 | 65 | 1011.3 |
| 20260905203056 | 81 | 323 | 2.0 | 5.0 | 0.00 | 0.04 | 0.03 | 65 | 1011.5 |
| 20260905201552 | 79 | 336 | 2.0 | 6.0 | 0.00 | 0.04 | 0.03 | 69 | 1011.6 |
| 20260905200053 | 80 | 5 | 1.0 | 5.0 | 0.00 | 0.04 | 0.03 | 68 | 1011.5 |
| 20260905194556 | 79 | 63 | 2.0 | 8.0 | 0.00 | 0.05 | 0.03 | 72 | 1011.6 |
| 20260905193058 | 79 | 240 | 1.0 | 5.0 | 0.00 | 0.05 | 0.03 | 77 | 1011.8 |
| 20260905191603 | 77 | 211 | 3.0 | 6.0 | 0.00 | 0.05 | 0.03 | 81 | 1012.0 |
| 20260905190054 | 75 | 219 | 3.0 | 6.0 | 0.00 | 0.05 | 0.03 | 86 | 1012.1 |
| 20260905184603 | 75 | 15 | 0.0 | 2.0 | 0.00 | 0.05 | 0.03 | 88 | 1012.1 |
| 20260905183057 | 74 | 0 | 0.0 | 2.0 | 0.00 | 0.05 | 0.03 | 86 | 1012.1 |
| 20260905181559 | 75 | 298 | 2.0 | 10.0 | 0.00 | 0.05 | 0.03 | 80 | 1012.4 |
| 20260905180049 | 78 | 51 | 5.0 | 11.0 | 0.00 | 0.05 | 0.03 | 74 | 1012.2 |
| 20260905174554 | 79 | 34 | 2.0 | 9.0 | 0.00 | 0.05 | 0.03 | 70 | 1012.3 |
| 20260905173053 | 79 | 351 | 2.0 | 7.0 | 0.00 | 0.05 | 0.03 | 71 | 1012.3 |
| 20260905171550 | 79 | 327 | 2.0 | 5.0 | 0.00 | 0.05 | 0.03 | 72 | 1012.6 |
| 20260905170059 | 78 | 105 | 2.0 | 7.0 | 0.00 | 0.05 | 0.03 | 74 | 1012.7 |
| 20260905164600 | 79 | 5 | 1.0 | 5.0 | 0.01 | 0.06 | 0.03 | 73 | 1012.9 |
| 20260905163051 | 78 | 0 | 3.0 | 11.0 | 0.01 | 0.06 | 0.03 | 73 | 1012.9 |
| 20260905161547 | 79 | 61 | 4.0 | 7.0 | 0.01 | 0.06 | 0.03 | 71 | 1013.1 |
| 20260905160106 | 78 | 27 | 1.0 | 6.0 | 0.01 | 0.06 | 0.03 | 74 | 1013.3 |
| 20260905154551 | 78 | 80 | 2.0 | 4.0 | 0.00 | 0.05 | 0.02 | 74 | 1013.4 |
| 20260905153056 | 79 | 0 | 0.0 | 2.0 | 0.00 | 0.05 | 0.02 | 74 | 1013.8 |
| 20260905151558 | 78 | 0 | 1.0 | 5.0 | 0.00 | 0.05 | 0.02 | 75 | 1013.9 |
| 20260905150055 | 78 | 0 | 0.0 | 2.0 | 0.00 | 0.05 | 0.02 | 76 | 1013.9 |
| 20260905144550 | 75 | 138 | 0.0 | 3.0 | 0.00 | 0.05 | 0.02 | 81 | 1013.9 |
| 20260905143048 | 74 | 15 | 1.0 | 3.0 | 0.00 | 0.05 | 0.02 | 82 | 1013.9 |
| 20260905141600 | 74 | 0 | 0.0 | 3.0 | 0.00 | 0.05 | 0.02 | 82 | 1013.8 |
| 20260905140105 | 73 | 0 | 0.0 | 3.0 | 0.00 | 0.05 | 0.02 | 84 | 1013.8 |
| 20260905134549 | 73 | 15 | 2.0 | 4.0 | 0.00 | 0.06 | 0.02 | 83 | 1013.5 |